Location: Chevoux
(46.3801°N, 4.9476°E)
Time: 00:46:00
(UTC+00:00)

Envisat - Visible Passes

Search period start: 01 December 2021 00:00
Search period end: 11 December 2021 00:00
Orbit: 764 x 766 km, 98.2° (Epoch: 30 November)

Date Brightness Start Highest point End Pass type
(mag) Time Alt. Az. Time Alt. Az. Time Alt. Az.
01 Dec 4.5 04:05:48 10° NNE 04:10:28 35° E 04:15:06 10° SSE visible
01 Dec 3.6 05:44:56 10° N 05:49:26 33° WNW 05:53:55 10° SW visible
01 Dec 5.9 17:03:37 10° SW 17:07:09 19° W 17:10:42 10° NW visible
02 Dec 5.6 03:29:58 10° NE 03:33:16 17° E 03:36:33 10° SE visible
02 Dec 2.9 05:07:42 10° N 05:12:46 66° WNW 05:17:47 10° SSW visible
02 Dec 4.7 16:25:15 10° SSW 16:29:58 39° W 16:34:43 10° NNW visible
03 Dec 3.5 04:30:51 10° NNE 04:35:54 60° E 04:40:54 10° S visible
03 Dec 4.2 06:10:46 10° NNW 06:14:29 21° WNW 06:18:12 10° WSW visible
03 Dec 6.3 17:31:38 10° W 17:32:48 11° W 17:33:59 10° WNW visible
04 Dec 4.9 03:54:27 10° NE 03:58:50 28° E 04:03:11 10° SSE visible
04 Dec 3.4 05:33:14 10° N 05:37:57 40° WNW 05:42:39 10° SW visible
04 Dec 5.6 16:51:27 10° SW 16:55:28 23° W 16:59:31 10° NW visible
05 Dec 5.9 03:19:04 10° ENE 03:21:34 14° E 03:24:03 10° ESE visible
05 Dec 2.9 04:56:07 10° NNE 05:01:14 83° WNW 05:06:18 10° SSW visible
06 Dec 3.9 04:19:22 10° NNE 04:24:18 47° E 04:29:12 10° S visible
06 Dec 3.9 05:58:56 10° N 06:03:03 25° WNW 06:07:09 10° WSW visible
06 Dec 6.0 17:18:30 10° WSW 17:21:04 14° W 17:23:40 10° WNW visible
07 Dec 5.2 03:43:10 10° NE 03:47:11 23° E 03:51:09 10° SE visible
07 Dec 3.1 05:21:33 10° N 05:26:27 50° WNW 05:31:20 10° SW visible
07 Dec 5.2 16:39:26 10° SSW 16:43:48 29° W 16:48:13 10° NW visible
08 Dec 6.1 03:08:55 10° ENE 03:09:50 10° E 03:10:45 10° E visible
08 Dec 3.0 04:44:33 10° NNE 04:49:40 80° ESE 04:54:45 10° S visible
08 Dec 4.4 06:24:59 10° NNW 06:28:03 16° WNW 06:31:06 10° W visible
09 Dec 4.3 04:07:56 10° NNE 04:12:41 38° E 04:17:23 10° SSE visible
09 Dec 3.7 05:47:10 10° N 05:51:36 31° WNW 05:56:00 10° SW visible
09 Dec 5.9 17:06:02 10° SW 17:09:23 18° W 17:12:45 10° NW visible
10 Dec 5.5 03:32:00 10° NE 03:35:30 18° E 03:38:58 10° SE visible
10 Dec 2.9 05:09:55 10° N 05:14:56 62° WNW 05:19:56 10° SSW visible
10 Dec 4.8 16:27:31 10° SSW 16:32:10 36° W 16:36:52 10° NNW visible
